,,,PA_Meas_PMT16A,,PR_Meas_QMR101_102,,RH_Meas_QMH101,,SR_Meas_QMS101,,TA_Meas_QMH101,,GenWind,,GenWind,
date,time,status,PA,status,PR,status,RH,status,SR,status,TA,status,DirAvg,status,SpdAvg,
2014-04-13, 00:00:04,VALID,1010.26,VALID,0,INVALID,110.383,VALID,0.112112,VALID,24.4132,VALID,92,VALID,0,
2014-04-13, 00:01:04,VALID,1010.24,VALID,0,INVALID,110.345,VALID,0.112112,VALID,24.4132,VALID,92,VALID,0,
2014-04-13, 00:02:04,VALID,1010.25,VALID,0,INVALID,110.352,VALID,0.112112,VALID,24.415,VALID,92,VALID,0,
2014-04-13, 00:03:04,VALID,1010.23,VALID,0,INVALID,110.352,VALID,0,VALID,24.3937,VALID,92,VALID,0,
2014-04-13, 00:04:04,VALID,1010.24,VALID,0,INVALID,110.39,VALID,0.112112,VALID,24.3742,VALID,92,VALID,0,
2014-04-13, 00:05:04,VALID,1010.23,VALID,0,INVALID,110.39,VALID,0.112112,VALID,24.3937,VALID,92,VALID,0,
2014-04-13, 00:06:04,VALID,1010.26,VALID,0,INVALID,110.413,VALID,0.112112,VALID,24.3742,VALID,92,VALID,0,
2014-04-13, 00:07:04,VALID,1010.24,VALID,0,INVALID,110.413,VALID,0,VALID,24.3547,VALID,92,VALID,0,
2014-04-13, 00:08:04,VALID,1010.23,VALID,0,INVALID,110.39,VALID,0,VALID,24.3352,VALID,92,VALID,0,
2014-04-13, 00:09:04,VALID,1010.22,VALID,0,INVALID,110.406,VALID,0,VALID,24.3547,VALID,92,VALID,0,
2014-04-13, 00:10:04,VALID,1010.23,VALID,0,INVALID,110.436,VALID,0.112112,VALID,24.3547,VALID,92,VALID,0,
2014-04-13, 00:11:04,VALID,1010.22,VALID,0,INVALID,110.444,VALID,0.112112,VALID,24.3352,VALID,92,VALID,0,
2014-04-13, 00:12:04,VALID,1010.21,VALID,0,INVALID,110.49,VALID,0,VALID,24.3352,VALID,92,VALID,0,
2014-04-13, 00:13:04,VALID,1010.22,VALID,0,INVALID,110.535,VALID,0,VALID,24.3352,VALID,92,VALID,0,
2014-04-13, 00:14:04,VALID,1010.2,VALID,0,INVALID,110.528,VALID,0.112112,VALID,24.3352,VALID,92,VALID,0,
2014-04-13, 00:15:04,VALID,1010.17,VALID,0,INVALID,110.612,VALID,0.112112,VALID,24.3158,VALID,92,VALID,0,
2014-04-13, 00:16:04,VALID,1010.19,VALID,0,INVALID,110.612,VALID,0.112112,VALID,24.3352,VALID,92,VALID,0,
2014-04-13, 00:17:04,VALID,1010.18,VALID,0,INVALID,110.604,VALID,0.112112,VALID,24.3547,VALID,92,VALID,0,
2014-04-13, 00:18:04,VALID,1010.15,VALID,0,INVALID,110.657,VALID,0.112112,VALID,24.3547,VALID,92,VALID,0,
2014-04-13, 00:19:04,VALID,1010.15,VALID,0,INVALID,110.695,VALID,0.112112,VALID,24.3547,VALID,92,VALID,0,
2014-04-13, 00:20:04,VALID,1010.14,VALID,0,INVALID,110.726,VALID,0.112112,VALID,24.3371,VALID,92,VALID,0,
2014-04-13, 00:21:04,VALID,1010.15,VALID,0,INVALID,110.703,VALID,0.112112,VALID,24.2573,VALID,92,VALID,0,
2014-04-13, 00:22:04,VALID,1010.12,VALID,0,INVALID,110.657,VALID,0.112112,VALID,24.2183,VALID,92,VALID,0,
2014-04-13, 00:23:04,VALID,1010.13,VALID,0,INVALID,110.581,VALID,0.112112,VALID,24.2202,VALID,92,VALID,0,
2014-04-13, 00:24:04,VALID,1010.13,VALID,0,INVALID,110.505,VALID,0.112112,VALID,24.1404,VALID,92,VALID,0,
2014-04-13, 00:25:04,VALID,1010.12,VALID,0,INVALID,110.49,VALID,0.112112,VALID,24.1014,VALID,92,VALID,0,
2014-04-13, 00:26:04,VALID,1010.14,VALID,0,INVALID,110.551,VALID,0.112112,VALID,24.0819,VALID,92,VALID,0,
2014-04-13, 00:27:04,VALID,1010.1,VALID,0,INVALID,110.589,VALID,0.112112,VALID,24.0624,VALID,92,VALID,0,
2014-04-13, 00:28:04,VALID,1010.1,VALID,0,INVALID,110.665,VALID,0,VALID,24.0837,VALID,92,VALID,0,
2014-04-13, 00:29:04,VALID,1010.08,VALID,0,INVALID,110.688,VALID,0,VALID,24.0856,VALID,92,VALID,0,
2014-04-13, 00:30:04,VALID,1010.08,VALID,0,INVALID,110.703,VALID,0,VALID,24.0448,VALID,92,VALID,0,
2014-04-13, 00:31:04,VALID,1010.04,VALID,0,INVALID,110.718,VALID,0,VALID,24.0448,VALID,92,VALID,0,
2014-04-13, 00:32:04,VALID,1010.06,VALID,0,INVALID,110.772,VALID,0,VALID,24.0271,VALID,92,VALID,0,
2014-04-13, 00:33:04,VALID,1010.04,VALID,0,INVALID,110.81,VALID,0,VALID,24.0058,VALID,92,VALID,0,
2014-04-13, 00:34:04,VALID,1010.05,VALID,0,INVALID,110.795,VALID,0,VALID,24.0076,VALID,92,VALID,0,
2014-04-13, 00:35:04,VALID,1010.01,VALID,0,INVALID,110.825,VALID,0,VALID,23.9668,VALID,92,VALID,0,
2014-04-13, 00:36:04,VALID,1010.01,VALID,0,INVALID,110.848,VALID,0,VALID,23.9881,VALID,92,VALID,0,
2014-04-13, 00:37:04,VALID,1009.98,VALID,0,INVALID,110.863,VALID,0,VALID,23.9473,VALID,92,VALID,0,
2014-04-13, 00:38:04,VALID,1009.98,VALID,0,INVALID,110.901,VALID,0,VALID,23.9297,VALID,92,VALID,0,
2014-04-13, 00:39:04,VALID,1009.96,VALID,0,INVALID,110.878,VALID,0,VALID,23.9084,VALID,92,VALID,0,
2014-04-13, 00:40:04,VALID,1009.96,VALID,0,INVALID,110.901,VALID,0,VALID,23.8889,VALID,92,VALID,0,
2014-04-13, 00:41:04,VALID,1009.96,VALID,0,INVALID,110.932,VALID,0,VALID,23.8907,VALID,92,VALID,0,
2014-04-13, 00:42:04,VALID,1009.96,VALID,0,INVALID,110.924,VALID,0,VALID,23.8499,VALID,92,VALID,0,
2014-04-13, 00:43:04,VALID,1009.96,VALID,0,INVALID,110.932,VALID,0,VALID,23.8286,VALID,92,VALID,0,
2014-04-13, 00:44:04,VALID,1009.96,VALID,0,INVALID,110.947,VALID,0,VALID,23.8109,VALID,92,VALID,0,
2014-04-13, 00:45:04,VALID,1009.97,VALID,0,INVALID,110.97,VALID,0,VALID,23.772,VALID,92,VALID,0,
2014-04-13, 00:46:04,VALID,1009.95,VALID,0,INVALID,110.97,VALID,0,VALID,23.7312,VALID,92,VALID,0,
2014-04-13, 00:47:04,VALID,1009.95,VALID,0,INVALID,110.955,VALID,0,VALID,23.7117,VALID,92,VALID,0,
2014-04-13, 00:48:04,VALID,1009.95,VALID,0,INVALID,110.939,VALID,0,VALID,23.7117,VALID,92,VALID,0,
2014-04-13, 00:49:04,VALID,1009.95,VALID,0,INVALID,110.947,VALID,0,VALID,23.7117,VALID,92,VALID,0,
2014-04-13, 00:50:04,VALID,1009.96,VALID,0,INVALID,110.97,VALID,0,VALID,23.7117,VALID,92,VALID,0,
2014-04-13, 00:51:04,VALID,1009.95,VALID,0,INVALID,110.955,VALID,0,VALID,23.6922,VALID,92,VALID,0,
2014-04-13, 00:52:04,VALID,1009.98,VALID,0,INVALID,110.932,VALID,0.112112,VALID,23.6922,VALID,92,VALID,0,
2014-04-13, 00:53:04,VALID,1009.94,VALID,0,INVALID,110.947,VALID,0.112112,VALID,23.6922,VALID,92,VALID,0,
2014-04-13, 00:54:04,VALID,1009.95,VALID,0,INVALID,110.932,VALID,0.112112,VALID,23.6727,VALID,92,VALID,0,
2014-04-13, 00:55:04,VALID,1009.94,VALID,0,INVALID,110.947,VALID,0.112112,VALID,23.6532,VALID,92,VALID,0,
2014-04-13, 00:56:04,VALID,1009.94,VALID,0,INVALID,110.939,VALID,0,VALID,23.6532,VALID,92,VALID,0,
2014-04-13, 00:57:04,VALID,1009.91,VALID,0,INVALID,110.947,VALID,0,VALID,23.6532,VALID,92,VALID,0,
2014-04-13, 00:58:04,VALID,1009.91,VALID,0,INVALID,110.894,VALID,0.112112,VALID,23.6532,VALID,92,VALID,0,
2014-04-13, 00:59:04,VALID,1009.89,VALID,0,INVALID,110.856,VALID,0.112112,VALID,23.694,VALID,92,VALID,0,
2014-04-13, 01:00:04,VALID,1009.93,VALID,0,INVALID,110.848,VALID,0,VALID,23.6727,VALID,92,VALID,0,
2014-04-13, 01:01:04,VALID,1009.93,VALID,0,INVALID,110.81,VALID,0.112112,VALID,23.7117,VALID,92,VALID,0,
2014-04-13, 01:02:04,VALID,1009.9,VALID,0,INVALID,110.886,VALID,0.112112,VALID,23.6922,VALID,92,VALID,0,
2014-04-13, 01:03:04,VALID,1009.89,VALID,0,INVALID,110.909,VALID,0,VALID,23.6338,VALID,92,VALID,0,
2014-04-13, 01:04:04,VALID,1009.89,VALID,0,INVALID,110.901,VALID,0,VALID,23.6338,VALID,92,VALID,0,
2014-04-13, 01:05:04,VALID,1009.88,VALID,0,INVALID,110.878,VALID,0,VALID,23.655,VALID,92,VALID,0,
2014-04-13, 01:06:04,VALID,1009.9,VALID,0,INVALID,110.833,VALID,0.112112,VALID,23.6745,VALID,92,VALID,0,
2014-04-13, 01:07:04,VALID,1009.9,VALID,0,INVALID,110.81,VALID,0.112112,VALID,23.6727,VALID,92,VALID,0,
2014-04-13, 01:08:04,VALID,1009.89,VALID,0,INVALID,110.756,VALID,0,VALID,23.6727,VALID,92,VALID,0,
2014-04-13, 01:09:04,VALID,1009.91,VALID,0,INVALID,110.772,VALID,0,VALID,23.6727,VALID,92,VALID,0,
2014-04-13, 01:10:04,VALID,1009.88,VALID,0,INVALID,110.749,VALID,0,VALID,23.7135,VALID,92,VALID,0,
2014-04-13, 01:11:04,VALID,1009.91,VALID,0,INVALID,110.741,VALID,0.112112,VALID,23.6727,VALID,92,VALID,0,
2014-04-13, 01:12:04,VALID,1009.91,VALID,0,INVALID,110.756,VALID,0,VALID,23.6727,VALID,92,VALID,0,
2014-04-13, 01:13:04,VALID,1009.92,VALID,0,INVALID,110.734,VALID,0,VALID,23.6922,VALID,92,VALID,0,
2014-04-13, 01:14:04,VALID,1009.92,VALID,0,INVALID,110.749,VALID,0.112112,VALID,23.6727,VALID,92,VALID,0,
2014-04-13, 01:15:04,VALID,1009.92,VALID,0,INVALID,110.764,VALID,0.112112,VALID,23.6727,VALID,92,VALID,0,
2014-04-13, 01:16:04,VALID,1009.94,VALID,0,INVALID,110.741,VALID,0,VALID,23.6532,VALID,92,VALID,0,
2014-04-13, 01:17:04,VALID,1009.96,VALID,0,INVALID,110.741,VALID,0,VALID,23.6532,VALID,92,VALID,0,
2014-04-13, 01:18:04,VALID,1009.94,VALID,0,INVALID,110.726,VALID,0.112112,VALID,23.655,VALID,92,VALID,0,
2014-04-13, 01:19:04,VALID,1009.93,VALID,0,INVALID,110.749,VALID,0.112112,VALID,23.6338,VALID,92,VALID,0,
2014-04-13, 01:20:04,VALID,1009.94,VALID,0,INVALID,110.741,VALID,0,VALID,23.6143,VALID,92,VALID,0,
2014-04-13, 01:21:04,VALID,1009.9,VALID,0,INVALID,110.703,VALID,0,VALID,23.6356,VALID,92,VALID,0,
2014-04-13, 01:22:04,VALID,1009.9,VALID,0,INVALID,110.718,VALID,0,VALID,23.5948,VALID,92,VALID,0,
2014-04-13, 01:23:04,VALID,1009.9,VALID,0,INVALID,110.673,VALID,0.112112,VALID,23.5948,VALID,92,VALID,0,
2014-04-13, 01:24:04,VALID,1009.88,VALID,0,INVALID,110.627,VALID,0,VALID,23.5948,VALID,92,VALID,0,
2014-04-13, 01:25:04,VALID,1009.82,VALID,0,INVALID,110.634,VALID,0.112112,VALID,23.6356,VALID,92,VALID,0,
2014-04-13, 01:26:04,VALID,1009.79,VALID,0,INVALID,110.642,VALID,0,VALID,23.5753,VALID,92,VALID,0,
2014-04-13, 01:27:04,VALID,1009.75,VALID,0,INVALID,110.634,VALID,0,VALID,23.5753,VALID,92,VALID,0,
2014-04-13, 01:28:04,VALID,1009.71,VALID,0,INVALID,110.634,VALID,0.112112,VALID,23.5753,VALID,92,VALID,0,
2014-04-13, 01:29:04,VALID,1009.67,VALID,0,INVALID,110.619,VALID,0.112112,VALID,23.5558,VALID,92,VALID,0,
2014-04-13, 01:30:04,VALID,1009.65,VALID,0,INVALID,110.612,VALID,0,VALID,23.5558,VALID,92,VALID,0,
2014-04-13, 01:31:04,VALID,1009.66,VALID,0,INVALID,110.589,VALID,0,VALID,23.5558,VALID,92,VALID,0,
2014-04-13, 01:32:04,VALID,1009.65,VALID,0,INVALID,110.581,VALID,0,VALID,23.5558,VALID,92,VALID,0,
2014-04-13, 01:33:04,VALID,1009.67,VALID,0,INVALID,110.566,VALID,0.112112,VALID,23.5558,VALID,92,VALID,0,
2014-04-13, 01:34:04,VALID,1009.67,VALID,0,INVALID,110.596,VALID,0.112112,VALID,23.5169,VALID,92,VALID,0,
2014-04-13, 01:35:04,VALID,1009.68,VALID,0,INVALID,110.581,VALID,0,VALID,23.5169,VALID,92,VALID,0,
2014-04-13, 01:36:04,VALID,1009.64,VALID,0,INVALID,110.573,VALID,0,VALID,23.4974,VALID,92,VALID,0,
2014-04-13, 01:37:04,VALID,1009.64,VALID,0,INVALID,110.581,VALID,0.112112,VALID,23.4974,VALID,92,VALID,0,
2014-04-13, 01:38:04,VALID,1009.62,VALID,0,INVALID,110.558,VALID,0.112112,VALID,23.4779,VALID,92,VALID,0,
2014-04-13, 01:39:04,VALID,1009.58,VALID,0,INVALID,110.543,VALID,0.112112,VALID,23.4584,VALID,92,VALID,0,
2014-04-13, 01:40:04,VALID,1009.56,VALID,0,INVALID,110.528,VALID,0,VALID,23.4389,VALID,92,VALID,0,
2014-04-13, 01:41:04,VALID,1009.54,VALID,0,INVALID,110.467,VALID,0,VALID,23.4389,VALID,92,VALID,0,
2014-04-13, 01:42:04,VALID,1009.55,VALID,0,INVALID,110.467,VALID,0,VALID,23.4407,VALID,92,VALID,0,
2014-04-13, 01:43:04,VALID,1009.53,VALID,0,INVALID,110.474,VALID,0,VALID,23.4194,VALID,92,VALID,0,
2014-04-13, 01:44:04,VALID,1009.49,VALID,0,INVALID,110.482,VALID,0.112112,VALID,23.4,VALID,92,VALID,0,
2014-04-13, 01:45:04,VALID,1009.48,VALID,0,INVALID,110.482,VALID,0,VALID,23.4212,VALID,92,VALID,0,
2014-04-13, 01:46:04,VALID,1009.44,VALID,0,INVALID,110.459,VALID,0,VALID,23.4,VALID,92,VALID,0,
2014-04-13, 01:47:04,VALID,1009.4,VALID,0,INVALID,110.451,VALID,0,VALID,23.4,VALID,92,VALID,0,
2014-04-13, 01:48:04,VALID,1009.38,VALID,0,INVALID,110.413,VALID,0.112112,VALID,23.3805,VALID,92,VALID,0,
2014-04-13, 01:49:04,VALID,1009.38,VALID,0,INVALID,110.39,VALID,0.112112,VALID,23.3805,VALID,92,VALID,0,
2014-04-13, 01:50:04,VALID,1009.39,VALID,0,INVALID,110.436,VALID,0.112112,VALID,23.3805,VALID,92,VALID,0,
2014-04-13, 01:51:04,VALID,1009.35,VALID,0,INVALID,110.413,VALID,0,VALID,23.4017,VALID,92,VALID,0,
2014-04-13, 01:52:04,VALID,1009.35,VALID,0,INVALID,110.39,VALID,0.112112,VALID,23.3415,VALID,92,VALID,0,
2014-04-13, 01:53:04,VALID,1009.34,VALID,0,INVALID,110.398,VALID,0,VALID,23.3823,VALID,92,VALID,0,
2014-04-13, 01:54:04,VALID,1009.35,VALID,0,INVALID,110.368,VALID,0,VALID,23.3628,VALID,92,VALID,0,
2014-04-13, 01:55:04,VALID,1009.33,VALID,0,INVALID,110.329,VALID,0.112112,VALID,23.361,VALID,92,VALID,0,
2014-04-13, 01:56:04,VALID,1009.31,VALID,0,INVALID,110.307,VALID,0,VALID,23.3415,VALID,92,VALID,0,
2014-04-13, 01:57:04,VALID,1009.28,VALID,0,INVALID,110.299,VALID,0,VALID,23.3415,VALID,92,VALID,0,
2014-04-13, 01:58:04,VALID,1009.28,VALID,0,INVALID,110.291,VALID,0.112112,VALID,23.361,VALID,92,VALID,0,
2014-04-13, 01:59:04,VALID,1009.27,VALID,0,INVALID,110.23,VALID,0.112112,VALID,23.3805,VALID,92,VALID,0,
2014-04-13, 02:00:04,VALID,1009.24,VALID,0,INVALID,110.223,VALID,0.112112,VALID,23.3805,VALID,92,VALID,0,
2014-04-13, 02:01:04,VALID,1009.23,VALID,0,INVALID,110.207,VALID,0,VALID,23.3805,VALID,92,VALID,0,
2014-04-13, 02:02:04,VALID,1009.22,VALID,0,INVALID,110.162,VALID,0.112112,VALID,23.4194,VALID,92,VALID,0,
2014-04-13, 02:03:04,VALID,1009.23,VALID,0,INVALID,110.139,VALID,0.112112,VALID,23.4,VALID,92,VALID,0,
2014-04-13, 02:04:04,VALID,1009.2,VALID,0,INVALID,110.154,VALID,0.112112,VALID,23.4389,VALID,92,VALID,0,
2014-04-13, 02:05:04,VALID,1009.21,VALID,0,INVALID,110.154,VALID,0.112112,VALID,23.4194,VALID,92,VALID,0,
2014-04-13, 02:06:04,VALID,1009.21,VALID,0,INVALID,110.131,VALID,0.112112,VALID,23.4389,VALID,92,VALID,0,
2014-04-13, 02:07:04,VALID,1009.21,VALID,0,INVALID,110.101,VALID,0.112112,VALID,23.4389,VALID,90,VALID,0,
2014-04-13, 02:08:04,VALID,1009.2,VALID,0,INVALID,110.139,VALID,0,VALID,23.4407,VALID,90,VALID,0,
2014-04-13, 02:09:04,VALID,1009.19,VALID,0,INVALID,110.131,VALID,0,VALID,23.4194,VALID,90,VALID,0,
2014-04-13, 02:10:04,VALID,1009.16,VALID,0,INVALID,110.116,VALID,0.112112,VALID,23.4194,VALID,90,VALID,0,
2014-04-13, 02:11:04,VALID,1009.17,VALID,0,INVALID,110.108,VALID,0,VALID,23.4389,VALID,90,VALID,0,
2014-04-13, 02:12:04,VALID,1009.16,VALID,0,INVALID,110.093,VALID,0,VALID,23.4407,VALID,90,VALID,0,
2014-04-13, 02:13:04,VALID,1009.12,VALID,0,INVALID,110.101,VALID,0,VALID,23.4212,VALID,90,VALID,0,
2014-04-13, 02:14:04,VALID,1009.11,VALID,0,INVALID,110.093,VALID,0,VALID,23.4407,VALID,90,VALID,0,
2014-04-13, 02:15:04,VALID,1009.11,VALID,0,INVALID,110.078,VALID,0,VALID,23.4425,VALID,90,VALID,0,
2014-04-13, 02:16:04,VALID,1009.11,VALID,0,INVALID,110.078,VALID,0,VALID,23.4212,VALID,90,VALID,0,
2014-04-13, 02:17:04,VALID,1009.1,VALID,0,INVALID,110.063,VALID,0,VALID,23.423,VALID,90,VALID,0,
2014-04-13, 02:18:04,VALID,1009.09,VALID,0,INVALID,110.063,VALID,0,VALID,23.4017,VALID,90,VALID,0,
2014-04-13, 02:19:04,VALID,1009.06,VALID,0,INVALID,110.108,VALID,0,VALID,23.4017,VALID,90,VALID,0,
2014-04-13, 02:20:04,VALID,1009.04,VALID,0,INVALID,110.055,VALID,0,VALID,23.3823,VALID,90,VALID,0,
2014-04-13, 02:21:04,VALID,1009.03,VALID,0,INVALID,110.108,VALID,0,VALID,23.3823,VALID,90,VALID,0,
2014-04-13, 02:22:04,VALID,1009.01,VALID,0,INVALID,110.093,VALID,0,VALID,23.3628,VALID,90,VALID,0,
2014-04-13, 02:23:04,VALID,1009.03,VALID,0,INVALID,110.154,VALID,0,VALID,23.3645,VALID,90,VALID,0,
2014-04-13, 02:24:04,VALID,1009.03,VALID,0,INVALID,110.124,VALID,0,VALID,23.3433,VALID,90,VALID,0,
2014-04-13, 02:25:04,VALID,1009.01,VALID,0,INVALID,110.131,VALID,0,VALID,23.3238,VALID,90,VALID,0,
2014-04-13, 02:26:04,VALID,1008.97,VALID,0,INVALID,110.124,VALID,0,VALID,23.3238,VALID,90,VALID,0,
2014-04-13, 02:27:04,VALID,1008.98,VALID,0,INVALID,110.116,VALID,0,VALID,23.3043,VALID,90,VALID,0,
2014-04-13, 02:28:04,VALID,1008.98,VALID,0,INVALID,110.108,VALID,0.112112,VALID,23.3026,VALID,90,VALID,0,
2014-04-13, 02:29:04,VALID,1008.94,VALID,0,INVALID,110.124,VALID,0,VALID,23.2831,VALID,90,VALID,0,
2014-04-13, 02:30:04,VALID,1008.96,VALID,0,INVALID,110.131,VALID,0.112112,VALID,23.2636,VALID,90,VALID,0,
2014-04-13, 02:31:04,VALID,1008.99,VALID,0,INVALID,110.139,VALID,0,VALID,23.2636,VALID,90,VALID,0,
2014-04-13, 02:32:04,VALID,1009,VALID,0,INVALID,110.108,VALID,0.112112,VALID,23.2636,VALID,90,VALID,0,
2014-04-13, 02:33:04,VALID,1009,VALID,0,INVALID,110.139,VALID,0.112112,VALID,23.2636,VALID,90,VALID,0,
2014-04-13, 02:34:04,VALID,1009,VALID,0,INVALID,110.101,VALID,0,VALID,23.2848,VALID,90,VALID,0,
2014-04-13, 02:35:04,VALID,1008.97,VALID,0,INVALID,110.093,VALID,0,VALID,23.2636,VALID,90,VALID,0,
2014-04-13, 02:36:04,VALID,1009,VALID,0,INVALID,110.085,VALID,0.112112,VALID,23.2441,VALID,90,VALID,0,
2014-04-13, 02:37:04,VALID,1008.98,VALID,0,INVALID,110.124,VALID,0,VALID,23.2246,VALID,90,VALID,0,
2014-04-13, 02:38:04,VALID,1008.97,VALID,0,INVALID,110.116,VALID,0,VALID,23.2246,VALID,90,VALID,0,
2014-04-13, 02:39:04,VALID,1008.96,VALID,0,INVALID,110.101,VALID,0.112112,VALID,23.2051,VALID,90,VALID,0,
2014-04-13, 02:40:04,VALID,1008.96,VALID,0,INVALID,110.07,VALID,0.112112,VALID,23.2051,VALID,90,VALID,0,
2014-04-13, 02:41:04,VALID,1008.95,VALID,0,INVALID,110.085,VALID,0.112112,VALID,23.2246,VALID,90,VALID,0,
2014-04-13, 02:42:04,VALID,1008.94,VALID,0,INVALID,110.063,VALID,0.112112,VALID,23.2246,VALID,90,VALID,0,
2014-04-13, 02:43:04,VALID,1008.94,VALID,0,INVALID,110.055,VALID,0,VALID,23.2264,VALID,90,VALID,0,
2014-04-13, 02:44:04,VALID,1008.94,VALID,0,INVALID,110.063,VALID,0,VALID,23.2264,VALID,90,VALID,0,
2014-04-13, 02:45:04,VALID,1008.93,VALID,0,INVALID,110.055,VALID,0,VALID,23.2069,VALID,90,VALID,0,
2014-04-13, 02:46:04,VALID,1008.93,VALID,0,INVALID,110.04,VALID,0,VALID,23.2264,VALID,90,VALID,0,
2014-04-13, 02:47:04,VALID,1008.93,VALID,0,INVALID,110.047,VALID,0,VALID,23.2476,VALID,90,VALID,0,
2014-04-13, 02:48:04,VALID,1008.87,VALID,0,INVALID,110.009,VALID,0,VALID,23.2282,VALID,90,VALID,0,
2014-04-13, 02:49:04,VALID,1008.85,VALID,0,INVALID,110.063,VALID,0,VALID,23.2069,VALID,90,VALID,0,
2014-04-13, 02:50:04,VALID,1008.85,VALID,0,INVALID,110.032,VALID,0,VALID,23.2459,VALID,90,VALID,0,
2014-04-13, 02:51:04,VALID,1008.84,VALID,0,INVALID,109.979,VALID,0,VALID,23.2459,VALID,90,VALID,0,
2014-04-13, 02:52:04,VALID,1008.84,VALID,0,INVALID,109.994,VALID,0,VALID,23.2264,VALID,90,VALID,0,
2014-04-13, 02:53:04,VALID,1008.84,VALID,0,INVALID,110.017,VALID,0,VALID,23.2459,VALID,90,VALID,0,
2014-04-13, 02:54:04,VALID,1008.85,VALID,0,INVALID,110.001,VALID,0,VALID,23.2246,VALID,90,VALID,0,
2014-04-13, 02:55:04,VALID,1008.84,VALID,0,INVALID,109.979,VALID,0,VALID,23.2459,VALID,90,VALID,0,
2014-04-13, 02:56:04,VALID,1008.84,VALID,0,INVALID,110.032,VALID,0,VALID,23.2264,VALID,90,VALID,0,
2014-04-13, 02:57:04,VALID,1008.86,VALID,0,INVALID,110.009,VALID,0,VALID,23.2069,VALID,90,VALID,0,
2014-04-13, 02:58:04,VALID,1008.86,VALID,0,INVALID,110.017,VALID,0.112112,VALID,23.2246,VALID,90,VALID,0,
2014-04-13, 02:59:04,VALID,1008.9,VALID,0,INVALID,109.986,VALID,0,VALID,23.2264,VALID,90,VALID,0,
2014-04-13, 03:00:04,VALID,1008.88,VALID,0,INVALID,110.009,VALID,0.112112,VALID,23.1839,VALID,90,VALID,0,
2014-04-13, 03:01:04,VALID,1008.88,VALID,0,INVALID,109.986,VALID,0,VALID,23.2051,VALID,90,VALID,0,
2014-04-13, 03:02:04,VALID,1008.87,VALID,0,INVALID,110.009,VALID,0.112112,VALID,23.2264,VALID,90,VALID,0,
2014-04-13, 03:03:04,VALID,1008.87,VALID,0,INVALID,110.055,VALID,0.112112,VALID,23.2051,VALID,90,VALID,0,
2014-04-13, 03:04:04,VALID,1008.89,VALID,0,INVALID,109.994,VALID,0,VALID,23.2051,VALID,90,VALID,0,
2014-04-13, 03:05:04,VALID,1008.88,VALID,0,INVALID,109.963,VALID,0.112112,VALID,23.2246,VALID,90,VALID,0,
2014-04-13, 03:06:04,VALID,1008.9,VALID,0,INVALID,109.986,VALID,0,VALID,23.2246,VALID,90,VALID,0,
2014-04-13, 03:07:04,VALID,1008.89,VALID,0,INVALID,110.04,VALID,0,VALID,23.1857,VALID,90,VALID,0,
2014-04-13, 03:08:04,VALID,1008.9,VALID,0,INVALID,109.994,VALID,0,VALID,23.2069,VALID,90,VALID,0,
2014-04-13, 03:09:04,VALID,1008.91,VALID,0,INVALID,110.009,VALID,0.112112,VALID,23.2051,VALID,90,VALID,0,
2014-04-13, 03:10:04,VALID,1008.93,VALID,0,INVALID,110.009,VALID,0,VALID,23.1857,VALID,90,VALID,0,
2014-04-13, 03:11:04,VALID,1008.91,VALID,0,INVALID,110.032,VALID,0,VALID,23.1857,VALID,90,VALID,0,
2014-04-13, 03:12:04,VALID,1008.92,VALID,0,INVALID,110.024,VALID,0.112112,VALID,23.1839,VALID,90,VALID,0,
2014-04-13, 03:13:04,VALID,1008.93,VALID,0,INVALID,110.063,VALID,0.112112,VALID,23.1874,VALID,90,VALID,0,
2014-04-13, 03:14:04,VALID,1008.96,VALID,0,INVALID,110.063,VALID,0,VALID,23.1485,VALID,90,VALID,0,
2014-04-13, 03:15:04,VALID,1008.94,VALID,0,INVALID,110.085,VALID,0,VALID,23.129,VALID,90,VALID,0,
2014-04-13, 03:16:04,VALID,1008.95,VALID,0,INVALID,110.093,VALID,0,VALID,23.1095,VALID,90,VALID,0,
2014-04-13, 03:17:04,VALID,1008.94,VALID,0,INVALID,110.124,VALID,0,VALID,23.09,VALID,90,VALID,0,
2014-04-13, 03:18:04,VALID,1008.89,VALID,0,INVALID,110.108,VALID,0,VALID,23.1502,VALID,90,VALID,0,
2014-04-13, 03:19:04,VALID,1008.87,VALID,0,INVALID,110.07,VALID,0,VALID,23.129,VALID,90,VALID,0,
2014-04-13, 03:20:04,VALID,1008.88,VALID,0,INVALID,110.139,VALID,0,VALID,23.1112,VALID,90,VALID,0,
2014-04-13, 03:21:04,VALID,1008.89,VALID,0,INVALID,110.131,VALID,0,VALID,23.09,VALID,90,VALID,0,
2014-04-13, 03:22:04,VALID,1008.9,VALID,0,INVALID,110.085,VALID,0,VALID,23.1307,VALID,90,VALID,0,
2014-04-13, 03:23:04,VALID,1008.92,VALID,0,INVALID,110.108,VALID,0,VALID,23.1307,VALID,90,VALID,0,
2014-04-13, 03:24:04,VALID,1008.93,VALID,0,INVALID,110.055,VALID,0,VALID,23.129,VALID,90,VALID,0,
2014-04-13, 03:25:04,VALID,1008.93,VALID,0,INVALID,110.055,VALID,0,VALID,23.1502,VALID,90,VALID,0,
2014-04-13, 03:26:04,VALID,1008.93,VALID,0,INVALID,110.04,VALID,0,VALID,23.1485,VALID,90,VALID,0,
2014-04-13, 03:27:04,VALID,1008.91,VALID,0,INVALID,110.055,VALID,0,VALID,23.1697,VALID,90,VALID,0,
2014-04-13, 03:28:04,VALID,1008.89,VALID,0,INVALID,110.032,VALID,0,VALID,23.1697,VALID,90,VALID,0,
2014-04-13, 03:29:04,VALID,1008.89,VALID,0,INVALID,110.07,VALID,0,VALID,23.1502,VALID,90,VALID,0,
2014-04-13, 03:30:04,VALID,1008.89,VALID,0,INVALID,110.101,VALID,0,VALID,23.129,VALID,90,VALID,0,
2014-04-13, 03:31:04,VALID,1008.86,VALID,0,INVALID,110.063,VALID,0,VALID,23.1502,VALID,90,VALID,0,
2014-04-13, 03:32:04,VALID,1008.84,VALID,0,INVALID,110.047,VALID,0,VALID,23.1502,VALID,90,VALID,0,
2014-04-13, 03:33:04,VALID,1008.84,VALID,0,INVALID,110.093,VALID,0,VALID,23.1307,VALID,90,VALID,0,
2014-04-13, 03:34:04,VALID,1008.85,VALID,0,INVALID,110.124,VALID,0,VALID,23.1112,VALID,90,VALID,0,
2014-04-13, 03:35:04,VALID,1008.85,VALID,0,INVALID,110.139,VALID,0,VALID,23.1112,VALID,90,VALID,0,
2014-04-13, 03:36:04,VALID,1008.84,VALID,0,INVALID,110.116,VALID,0,VALID,23.1112,VALID,90,VALID,0,
2014-04-13, 03:37:04,VALID,1008.83,VALID,0,INVALID,110.085,VALID,0,VALID,23.09,VALID,90,VALID,0,
2014-04-13, 03:38:04,VALID,1008.84,VALID,0,INVALID,110.124,VALID,0,VALID,23.09,VALID,90,VALID,0,
2014-04-13, 03:39:04,VALID,1008.86,VALID,0,INVALID,110.085,VALID,0,VALID,23.1095,VALID,90,VALID,0,
2014-04-13, 03:40:04,VALID,1008.87,VALID,0,INVALID,110.093,VALID,0,VALID,23.1307,VALID,90,VALID,0,
2014-04-13, 03:41:04,VALID,1008.9,VALID,0,INVALID,110.101,VALID,0,VALID,23.1095,VALID,90,VALID,0,
2014-04-13, 03:42:04,VALID,1008.89,VALID,0,INVALID,110.124,VALID,0,VALID,23.09,VALID,90,VALID,0,
2014-04-13, 03:43:04,VALID,1008.9,VALID,0,INVALID,110.131,VALID,0,VALID,23.09,VALID,90,VALID,0,
2014-04-13, 03:44:04,VALID,1008.91,VALID,0,INVALID,110.162,VALID,0,VALID,23.0918,VALID,90,VALID,0,
2014-04-13, 03:45:04,VALID,1008.91,VALID,0,INVALID,110.177,VALID,0,VALID,23.0511,VALID,90,VALID,0,
2014-04-13, 03:46:04,VALID,1008.9,VALID,0,INVALID,110.146,VALID,0,VALID,23.0705,VALID,90,VALID,0,
2014-04-13, 03:47:04,VALID,1008.91,VALID,0,INVALID,110.185,VALID,0,VALID,23.0528,VALID,90,VALID,0,
2014-04-13, 03:48:04,VALID,1008.91,VALID,0,INVALID,110.238,VALID,0,VALID,23.0316,VALID,90,VALID,0,
2014-04-13, 03:49:04,VALID,1008.9,VALID,0,INVALID,110.185,VALID,0,VALID,23.0528,VALID,90,VALID,0,
2014-04-13, 03:50:04,VALID,1008.91,VALID,0,INVALID,110.207,VALID,0,VALID,23.0511,VALID,90,VALID,0,
2014-04-13, 03:51:04,VALID,1008.89,VALID,0,INVALID,110.207,VALID,0,VALID,23.0528,VALID,90,VALID,0,
2014-04-13, 03:52:04,VALID,1008.87,VALID,0,INVALID,110.23,VALID,0,VALID,23.0528,VALID,90,VALID,0,